This is the latest recevied weather packets stored in our database for station/object DN9EM-3. If no packets are shown the sender has not sent any weather packets the latest 10 day(s).
| Time | Temp. | Humidity | Pressure | Rain* | Wind** | Luminosity | Snow |
|---|---|---|---|---|---|---|---|
| 1788282661 | 17.78° C | 70% | 1019.2 hPa | 0 mm | - | - | - |
| 1788282053 | 17.78° C | 71% | 1019.1 hPa | 0 mm | - | - | - |
| 1788281450 | 18.33° C | 71% | 1019.2 hPa | 0 mm | - | - | - |
| 1788280848 | 18.33° C | 71% | 1019.3 hPa | 0 mm | - | - | - |
| 1788280245 | 18.33° C | 70% | 1019.2 hPa | 0 mm | - | - | - |
| 1788279643 | 18.33° C | 70% | 1019.1 hPa | 0 mm | - | - | - |
| 1788279040 | 18.33° C | 71% | 1019.1 hPa | 0 mm | - | - | - |
| 1788278438 | 18.33° C | 70% | 1019.2 hPa | 0 mm | - | - | - |
| 1788277835 | 18.33° C | 70% | 1019.1 hPa | 0 mm | - | - | - |
| 1788277233 | 18.89° C | 72% | 1019.1 hPa | 0 mm | - | - | - |
| 1788276630 | 18.89° C | 72% | 1019.1 hPa | 0 mm | - | - | - |
| 1788276028 | 18.33° C | 78% | 1019 hPa | 0 mm | - | - | - |
| 1788275425 | 18.33° C | 79% | 1019 hPa | 0 mm | - | - | - |
| 1788274822 | 17.78° C | 80% | 1019 hPa | 0 mm | - | - | - |
| 1788274233 | 17.78° C | 82% | 1018.8 hPa | 0 mm | - | - | - |
| 1788273617 | 17.78° C | 85% | 1018.9 hPa | 0 mm | - | - | - |
| 1788273015 | 17.22° C | 87% | 1018.9 hPa | 0 mm | - | - | - |
| 1788272472 | 17.22° C | 87% | 1019 hPa | 0 mm | - | - | - |
| 1788271870 | 17.22° C | 86% | 1019 hPa | 0 mm | - | - | - |
| 1788271267 | 17.78° C | 82% | 1018.9 hPa | 0 mm | - | - | - |
| 1788270685 | 18.33° C | 79% | 1018.8 hPa | 0 mm | - | - | - |
| 1788270062 | 17.78° C | 82% | 1018.8 hPa | 0 mm | - | - | - |
| 1788269460 | 17.78° C | 84% | 1018.8 hPa | 0 mm | - | - | - |
| 1788268857 | 17.22° C | 84% | 1018.8 hPa | 0 mm | - | - | - |
| 1788268254 | 17.22° C | 83% | 1018.7 hPa | 0 mm | - | - | - |
* Rain latest hour (hover to see other rain measurements)
** Current wind speed in m/s (hover to see current wind gust speed)